Weather History for Fort Stockton, TX

Change the Weather History Date:

Thursday, December 19, 2013

  Actual Average Record
Temperature  
Mean Temperature 64 °F -  
Max Temperature 81 °F 58 °F 81 °F (2013)
Min Temperature 46 °F 32 °F 19 °F (1996)
Degree Days  
Heating Degree Days 2    
Growing Degree Days 14 (Base 50)    
Moisture  
Dew Point 32 °F    
Average Humidity 34    
Maximum Humidity 66    
Minimum Humidity 16    
Precipitation  
Precipitation 0.00 in - - ()
Sea Level Pressure  
Sea Level Pressure 29.70 in    
Wind  
Wind Speed 14 mph (SSW)    
Max Wind Speed 21 mph    
Max Gust Speed 32 mph    
Visibility 10 miles    
Events      
Averages and records for this station are not official NWS values.
T = Trace of Precipitation, MM = Missing Value Source: NWS Daily Summary

Daily Weather History Graph

Daily Weather History Graph

Search for Another Location

Airport:

Trip Planner

Search our weather history database for the weather conditions in past years. The results will help you decide how hot, cold, wet, or windy it might be!

Date:

Astronomy

Dec. 19, 2013 Rise Set
Actual Time 7:44 AM CST 5:53 PM CST
Civil Twilight 7:17 AM CST 6:20 PM CST
Nautical Twilight 6:47 AM CST 6:50 PM CST
Astronomical Twilight 6:18 AM CST 7:19 PM CST
Moon 8:12 PM CST (12/19) 9:11 AM CST (12/19)
Length of Visible Light 11h 02m
Length of Day
10h 08m
Waning Gibbous, 95% of the Moon is Illuminated
Dec 19
Waning Gibbous
Dec 25
Last Quarter
Jan 1
New
Jan 7
First Quarter
Jan 15
Full

Hourly Weather History & Observations

Time (CST) Temp. Dew Point Humidity Pressure Visibility Wind Dir Wind Speed Gust Speed Precip Events Conditions
12:53 AM 48.9 °F 37.0 °F 64% 29.83 in 10.0 mi South 10.4 mph - N/A   Clear
1:53 AM 46.9 °F 36.0 °F 66% 29.80 in 10.0 mi South 10.4 mph - N/A   Clear
2:53 AM 55.0 °F 28.0 °F 35% 29.76 in 10.0 mi SW 16.1 mph - N/A   Clear
3:53 AM 55.0 °F 27.0 °F 34% 29.75 in 10.0 mi SSW 12.7 mph - N/A   Clear
4:53 AM 53.1 °F 28.0 °F 38% 29.75 in 10.0 mi SSW 15.0 mph - N/A   Clear
5:53 AM 54.0 °F 27.0 °F 35% 29.74 in 10.0 mi SW 15.0 mph - N/A   Clear
6:53 AM 53.1 °F 27.0 °F 37% 29.73 in 10.0 mi SSW 13.8 mph - N/A   Clear
7:53 AM 54.0 °F 28.0 °F 37% 29.74 in 10.0 mi SSW 15.0 mph - N/A   Clear
8:53 AM 61.0 °F 28.0 °F 29% 29.74 in 10.0 mi SSW 18.4 mph - N/A   Clear
9:53 AM 70.0 °F 28.9 °F 22% 29.75 in 10.0 mi WSW 15.0 mph - N/A   Clear
10:53 AM 73.0 °F 28.9 °F 20% 29.75 in 10.0 mi WSW 18.4 mph - N/A   Clear
11:53 AM 77.0 °F 28.9 °F 17% 29.73 in 10.0 mi WSW 20.7 mph 29.9 mph N/A   Clear
12:53 PM 79.0 °F 30.0 °F 17% 29.69 in 10.0 mi WSW 19.6 mph 29.9 mph N/A   Clear
1:53 PM 81.0 °F 30.9 °F 16% 29.65 in 10.0 mi SW 16.1 mph 32.2 mph N/A   Clear
2:53 PM 80.1 °F 32.0 °F 17% 29.62 in 10.0 mi SW 17.3 mph 27.6 mph N/A   Clear
3:53 PM 79.0 °F 33.1 °F 19% 29.61 in 10.0 mi SW 20.7 mph - N/A   Clear
4:53 PM 78.1 °F 34.0 °F 20% 29.62 in 10.0 mi SW 18.4 mph 26.5 mph N/A   Clear
5:53 PM 72.0 °F 35.1 °F 26% 29.63 in 10.0 mi SSW 9.2 mph - N/A   Clear
6:53 PM 64.0 °F 36.0 °F 35% 29.65 in 10.0 mi South 9.2 mph - N/A   Clear
7:53 PM 64.9 °F 37.0 °F 36% 29.65 in 10.0 mi SSE 12.7 mph - N/A   Clear
8:53 PM 60.1 °F 39.0 °F 46% 29.65 in 10.0 mi SE 11.5 mph - N/A   Clear
9:53 PM 60.1 °F 41.0 °F 49% 29.65 in 10.0 mi SSE 10.4 mph - N/A   Clear
10:53 PM 55.9 °F 39.0 °F 53% 29.68 in 10.0 mi NW 5.8 mph - N/A   Clear
11:53 PM 61.0 °F 37.0 °F 41% 29.67 in 10.0 mi WSW 12.7 mph - N/A   Clear